Stations météo

réclame
Mon MeteoGroup
Northolt, Grande-Bretagne (3672): Température de l'air & dewpoint: 26.11.2020 13:00:00 - 02.12.2020 13:00:00 (GMT)Northolt, Grande-Bretagne (3672): Température de l'air -20cm & Température de l'air -100cm: 26.11.2020 13:00:00 - 02.12.2020 13:00:00 (GMT)Northolt, Grande-Bretagne (3672): Vitesse du vent & gusts: 26.11.2020 13:00:00 - 02.12.2020 13:00:00 (GMT)Northolt, Grande-Bretagne (3672): Direction du vent: 26.11.2020 13:00:00 - 02.12.2020 13:00:00 (GMT)Northolt, Grande-Bretagne (3672): reduced air pressure: 26.11.2020 13:00:00 - 02.12.2020 13:00:00 (GMT)Northolt, Grande-Bretagne (3672): visibility: 26.11.2020 13:00:00 - 02.12.2020 13:00:00 (GMT)Northolt, Grande-Bretagne (3672): Quantités de précipitations: 26.11.2020 13:00:00 - 02.12.2020 13:00:00 (GMT)
Date & Time tt [°C] td [°C] tt -20cm [°C] tt -100cm [°C] ff [km/h] ff [knt] fx [km/h] fx [knt] dd ppp [hPa] vv [km] rr [mm]
02.12.2020 13:00:00 6,0 3,0 - - 9 5 - - SW - 10 0,0
02.12.2020 12:00:00 5,8 2,9 - - 5 3 - - WSW 1017,8 10 0,0
02.12.2020 11:00:00 5,0 2,4 - - 5 3 - - WSW 1019,0 10 0,0
02.12.2020 10:00:00 4,1 2,4 - - 2 1 - - SSW 1019,9 10 0,0
02.12.2020 09:00:00 3,6 2,0 8,4 11,0 4 2 - - SW 1020,4 10 0,0
02.12.2020 08:00:00 3,1 2,0 - - 4 2 - - WNW 1020,9 10 0,0
02.12.2020 07:00:00 2,5 1,5 - - 2 1 - - WNW 1021,8 10 0,0
02.12.2020 06:00:00 2,7 1,5 - - 4 2 - - SW 1021,9 19 0,0
02.12.2020 05:00:00 2,4 1,2 - - 2 1 - - S 1022,6 19 0,0
02.12.2020 04:00:00 2,7 1,4 - - 5 3 - - W 1023,2 10 0,0
02.12.2020 03:00:00 2,5 1,1 - - 5 3 - - WNW 1023,9 20 0,0
02.12.2020 02:00:00 2,7 1,2 - - 2 1 - - ENE 1024,5 10 0,0
02.12.2020 01:00:00 3,1 1,5 - - 11 6 - - N 1024,9 10 0,0
02.12.2020 00:00:00 1,4 0,7 - - 8 4 - - NNW 1025,5 10 0,0
01.12.2020 23:00:00 1,5 0,3 - - 8 4 - - NW 1026,0 10 0,0
01.12.2020 22:00:00 2,5 1,3 - - 8 4 - - WNW 1026,3 10 0,0
01.12.2020 21:00:00 2,6 1,5 - - 4 2 - - NW 1026,4 25 0,0
01.12.2020 20:00:00 2,0 1,3 - - 8 4 - - NW 1026,3 10 0,0
01.12.2020 19:00:00 2,5 0,7 - - 9 5 - - NNW 1026,4 10 0,0
01.12.2020 18:00:00 3,0 1,3 - - 8 4 - - NW 1026,2 10 0,0
01.12.2020 17:00:00 4,1 1,9 - - 5 3 - - NNW 1026,1 10 0,0
01.12.2020 16:00:00 5,8 2,2 - - 13 7 - - N 1026,2 10 0,0
01.12.2020 15:00:00 7,2 2,6 - - 15 8 - - N 1025,8 10 0,0
01.12.2020 14:00:00 7,6 3,0 - - 18 10 - - NNW 1025,9 10 0,0
01.12.2020 13:00:00 7,4 2,8 - - 21 11 - - N 1026,2 10 0,0
01.12.2020 12:00:00 6,9 2,5 - - 16 9 - - N 1026,5 10 0,0
01.12.2020 11:00:00 6,3 2,7 - - 18 10 - - NNW 1026,4 40 0,0
01.12.2020 10:00:00 5,4 1,9 - - 15 8 - - N 1026,4 10 0,0
01.12.2020 09:00:00 3,3 1,3 9,0 11,0 11 6 - - NNW 1026,2 10 0,0
01.12.2020 08:00:00 2,0 0,5 - - 9 5 - - NW 1026,1 30 0,0
01.12.2020 07:00:00 2,4 0,6 - - 8 4 - - NW 1025,5 10 0,0
01.12.2020 06:00:00 2,6 0,6 - - 11 6 - - NNW 1024,9 40 0,0
01.12.2020 05:00:00 3,5 1,0 - - 13 7 - - NNW 1024,6 10 0,0
01.12.2020 04:00:00 3,9 0,8 - - 13 7 - - NNW 1024,2 40 0,0
01.12.2020 03:00:00 4,2 0,9 - - 13 7 - - NNW 1024,0 10 0,0
01.12.2020 02:00:00 4,8 1,1 - - 16 9 - - NNW 1023,6 10 0,0
01.12.2020 01:00:00 4,8 1,5 - - 16 9 - - NNW 1023,2 10 0,0
01.12.2020 00:00:00 5,4 2,2 - - 18 10 - - NNW 1023,0 30 0,0
30.11.2020 23:00:00 6,2 2,5 - - 16 9 - - NNW 1022,7 45 0,0
30.11.2020 22:00:00 7,8 3,1 - - 26 14 52 28 NNW 1022,1 10 0,0
30.11.2020 21:00:00 9,4 5,2 - - 28 15 52 28 NNW 1020,8 10 0,0
30.11.2020 20:00:00 10,1 7,9 - - 18 10 - - W 1019,9 10 0,0
30.11.2020 19:00:00 10,3 7,7 - - 24 13 - - W 1020,1 10 0,0
30.11.2020 18:00:00 9,8 7,7 - - 24 13 - - WNW 1020,3 10 0,0
30.11.2020 17:00:00 9,7 7,9 - - 16 9 - - W 1020,7 10 0,0
30.11.2020 16:00:00 9,4 7,7 - - 18 10 - - W 1020,7 10 0,0
30.11.2020 15:00:00 8,5 7,4 - - 15 8 - - W 1021,1 8 0,0
30.11.2020 14:00:00 7,2 6,4 - - 13 7 - - WSW 1022,2 8 0,0
30.11.2020 13:00:00 6,2 5,7 - - 15 8 - - WSW 1023,2 6 0,0
30.11.2020 12:00:00 5,3 5,2 - - 13 7 - - WSW 1024,4 5 0,0
30.11.2020 11:00:00 4,3 4,3 - - 15 8 - - WSW 1025,5 0,9 0,0
30.11.2020 10:00:00 5,0 5,0 - - 15 8 - - W 1026,0 0,9 0,0
30.11.2020 09:00:00 5,2 5,2 9,2 11,2 9 5 - - WSW 1026,1 0,5 0,0
30.11.2020 08:00:00 4,7 4,7 - - 11 6 - - WSW 1026,4 0,5 0,0
30.11.2020 07:00:00 4,8 4,8 - - 13 7 - - WSW 1026,6 0,8 0,0
30.11.2020 06:00:00 5,0 5,0 - - 13 7 - - WSW 1026,6 0,6 0,0
30.11.2020 05:00:00 5,3 5,3 - - 9 5 - - W 1026,8 0,4 0,0
30.11.2020 04:00:00 5,6 5,5 - - 11 6 - - W 1026,8 1,4 0,0
30.11.2020 03:00:00 5,8 5,7 - - 5 3 - - WNW 1027,3 0,9 0,0
30.11.2020 02:00:00 5,9 5,8 - - 8 4 - - WNW 1027,3 4,5 0,0
30.11.2020 01:00:00 6,1 5,7 - - 8 4 - - W 1027,1 6 0,0
30.11.2020 00:00:00 6,0 5,7 - - 18 10 - - NNW 1027,5 10 0,0
29.11.2020 23:00:00 6,2 6,1 - - 9 5 - - NW 1027,8 5 0,0
29.11.2020 22:00:00 6,4 6,2 - - 8 4 - - NW 1027,6 0,6 0,0
29.11.2020 21:00:00 6,4 5,9 - - 5 3 - - WSW 1027,2 4,2 0,0
29.11.2020 20:00:00 6,5 6,1 - - 4 2 - - NW 1027,4 2,8 0,0
29.11.2020 19:00:00 6,5 5,9 - - 4 2 - - W 1027,5 3,1 0,0
29.11.2020 18:00:00 6,6 6,0 - - 4 2 - - WNW 1027,4 3,0 0,0
29.11.2020 17:00:00 6,6 6,0 - - 5 3 - - WNW 1027,1 4,0 0,0
29.11.2020 16:00:00 6,9 6,1 - - 2 1 - - ENE 1026,7 4,0 0,0
29.11.2020 15:00:00 6,9 6,2 - - 4 2 - - N 1026,7 4,0 0,0
29.11.2020 14:00:00 7,4 6,0 - - 5 3 - - ENE 1026,6 5 0,0
29.11.2020 13:00:00 7,4 6,4 - - 4 2 - - NE 1026,4 5 0,0
29.11.2020 12:00:00 7,2 6,4 - - 8 4 - - ENE 1026,5 4,7 0,0
29.11.2020 11:00:00 7,1 6,4 - - 9 5 - - E 1026,6 4,0 0,0
29.11.2020 10:00:00 7,2 6,7 - - 9 5 - - E 1026,6 4,0 0,0
29.11.2020 09:00:00 7,4 6,9 9,0 11,2 8 4 - - E 1026,2 4,0 0,0
29.11.2020 08:00:00 7,6 7,1 - - 9 5 - - ENE 1025,5 4,0 0,0
29.11.2020 07:00:00 7,8 7,4 - - 11 6 - - ENE 1025,1 3,5 0,0
29.11.2020 06:00:00 8,0 7,6 - - 9 5 - - ENE 1024,8 3,7 0,0
29.11.2020 05:00:00 8,2 7,6 - - 13 7 - - E 1024,6 4,4 0,0
29.11.2020 04:00:00 8,4 8,0 - - 11 6 - - NE 1024,4 3,8 0,0
29.11.2020 03:00:00 8,7 8,2 - - 9 5 - - NE 1024,1 4,5 0,0
29.11.2020 02:00:00 8,8 8,0 - - 9 5 - - NE 1023,9 4,4 0,0
29.11.2020 01:00:00 8,9 8,0 - - 13 7 - - ENE 1023,6 5 0,0
29.11.2020 00:00:00 8,9 7,8 - - 11 6 - - ENE 1023,5 5 0,0
28.11.2020 23:00:00 9,0 7,8 - - 13 7 - - ENE 1023,1 5 0,0
28.11.2020 22:00:00 9,2 7,9 - - 13 7 - - ENE 1022,6 6 0,0
28.11.2020 21:00:00 9,2 8,0 - - 11 6 - - ENE 1022,3 5 0,0
28.11.2020 20:00:00 9,3 7,8 - - 11 6 - - ENE 1021,8 6 0,0
28.11.2020 19:00:00 9,7 8,0 - - 16 9 - - E 1021,2 7 0,0
28.11.2020 18:00:00 10,0 8,2 - - 16 9 - - E 1020,6 5 0,0
28.11.2020 17:00:00 10,4 8,6 - - 11 6 - - E 1020,1 5 0,0
28.11.2020 16:00:00 9,8 8,5 - - 8 4 - - NE 1019,7 5 0,0
28.11.2020 15:00:00 9,7 8,3 - - 13 7 - - E 1019,1 6 0,0
28.11.2020 14:00:00 9,3 8,3 - - 13 7 - - E 1018,9 5 0,0
28.11.2020 13:00:00 8,7 7,9 - - 13 7 - - ESE 1018,7 5 0,0
28.11.2020 12:00:00 8,4 7,7 - - 13 7 - - E 1018,6 3,0 0,0
28.11.2020 11:00:00 8,4 7,7 - - 11 6 - - E 1018,3 3,2 0,0
28.11.2020 10:00:00 8,4 7,6 - - 15 8 - - E 1017,8 3,0 0,0
28.11.2020 09:00:00 8,4 7,5 8,7 11,5 11 6 - - E 1017,5 4,0 0,0
28.11.2020 08:00:00 8,3 7,4 - - 11 6 - - E 1017,0 4,0 0,0
28.11.2020 07:00:00 8,4 7,4 - - 11 6 - - ESE 1016,6 5 0,0
28.11.2020 06:00:00 8,4 7,2 - - 13 7 - - ESE 1016,2 5 0,0
28.11.2020 05:00:00 8,2 7,2 - - 9 5 - - E 1015,8 4,8 0,0
28.11.2020 04:00:00 8,1 7,1 - - 8 4 - - E 1015,7 5 0,0
28.11.2020 03:00:00 7,7 7,0 - - 9 5 - - E 1015,9 5 0,0
28.11.2020 02:00:00 6,6 6,1 - - 8 4 - - NE 1016,0 5 0,0
28.11.2020 01:00:00 6,1 5,5 - - 5 3 - - ENE 1015,9 6 0,0
28.11.2020 00:00:00 5,3 4,7 - - 5 3 - - NE 1016,3 7 0,0
27.11.2020 23:00:00 5,4 4,8 - - 4 2 - - NNE 1016,4 6 0,0
27.11.2020 22:00:00 4,4 4,0 - - 5 3 - - NE 1016,6 7 0,0
27.11.2020 21:00:00 4,6 3,9 - - 9 5 - - NE 1016,7 8 0,0
27.11.2020 20:00:00 5,1 3,9 - - 9 5 - - ENE 1016,9 10 0,0
27.11.2020 19:00:00 6,0 4,3 - - 8 4 - - ENE 1017,3 10 0,0
27.11.2020 18:00:00 5,8 3,8 - - 8 4 - - ENE 1017,5 10 0,0
27.11.2020 17:00:00 5,4 3,9 - - 5 3 - - NNE 1017,5 7 0,0
27.11.2020 16:00:00 5,4 3,8 - - 8 4 - - NE 1017,6 7 0,0
27.11.2020 15:00:00 5,4 3,4 - - 9 5 - - NE 1017,6 8 0,0
27.11.2020 14:00:00 5,2 3,0 - - 8 4 - - NE 1018,2 9 0,0
27.11.2020 13:00:00 4,7 2,8 - - 9 5 - - NNE 1018,7 8 0,0
27.11.2020 12:00:00 4,4 3,7 - - 8 4 - - NNW 1019,3 12 0,0
27.11.2020 11:00:00 2,9 2,9 - - 4 2 - - NW 1019,9 8 0,2
27.11.2020 10:00:00 0,5 0,5 - - 2 1 - - W 1020,5 5 0,0
27.11.2020 09:00:00 -1,5 -1,6 9,2 11,7 2 1 - - NW 1020,7 5 0,0
27.11.2020 08:00:00 -1,1 -1,1 - - 4 2 - - WNW 1020,8 7 0,0
27.11.2020 07:00:00 -2,5 -2,6 - - 5 3 - - NNW 1020,8 3,5 0,0
27.11.2020 06:00:00 -2,1 -2,2 - - 5 3 - - W 1021,1 0,4 0,0
27.11.2020 05:00:00 -1,1 -1,1 - - 4 2 - - SSW 1021,0 0,2 0,0
27.11.2020 04:00:00 -1,5 -1,6 - - 4 2 - - NW 1021,2 0,1 0,0
27.11.2020 03:00:00 -1,3 -1,3 - - 2 1 - - NNW 1021,3 0,2 0,0
27.11.2020 02:00:00 -1,1 -1,1 - - 4 2 - - NW 1021,5 0,3 0,0
27.11.2020 01:00:00 -0,6 -0,6 - - 5 3 - - WNW 1021,6 0,2 0,0
27.11.2020 00:00:00 -0,4 -0,5 - - 2 1 - - S 1021,6 0,3 0,0
26.11.2020 23:00:00 0,8 0,7 - - 2 1 - - WNW 1021,6 2,0 0,0
26.11.2020 22:00:00 1,5 1,5 - - 4 2 - - NNE 1021,9 4,0 0,0
26.11.2020 21:00:00 1,2 1,0 - - 4 2 - - N 1021,8 3,5 0,0
26.11.2020 20:00:00 1,9 1,8 - - 0 0 - - N 1021,9 4,0 0,0
26.11.2020 19:00:00 2,0 1,2 - - 4 2 - - N 1021,9 6 0,0
26.11.2020 18:00:00 3,8 3,1 - - 4 2 - - NNE 1021,6 9 0,0
26.11.2020 17:00:00 5,6 4,0 - - 8 4 - - NE 1021,2 10 0,0
26.11.2020 16:00:00 7,3 4,5 - - 9 5 - - NNE 1020,9 10 0,0
26.11.2020 15:00:00 8,2 5,1 - - 5 3 - - NNE 1020,9 10 0,0
26.11.2020 14:00:00 8,3 5,1 - - 8 4 - - NNE 1020,9 30 0,0
26.11.2020 13:00:00 8,2 5,2 - - 9 5 - - NNE 1021,2 10 0,0

tt = Température de l'air
td = dewpoint
tt -20cm = Température de l'air -20cm
tt -100cm = Température de l'air -100cm
ff = Vitesse du vent
fx = gusts
dd = Direction du vent
ppp = reduced air pressure
vv = visibility
rr = Quantités de précipitations

stations d'obs. à proximité